Location: Pasadena-CA
(34.1440°N, 118.1100°W)
Time: 14:09:18
(UTC-07:00)

Hubble Space Telescope - Visible Passes

Search period start: 30 March 2023 00:00
Search period end: 09 April 2023 00:00
Orbit: 527 x 530 km, 28.5° (Epoch: 30 March)

Date Brightness Start Highest point End Pass type
(mag) Time Alt. Az. Time Alt. Az. Time Alt. Az.
30 Mar 2.3 20:46:03 10° SW 20:48:33 22° S 20:48:33 22° S visible
31 Mar 1.9 20:32:00 10° SW 20:35:27 27° SSE 20:35:46 26° SSE visible
01 Apr 1.8 20:17:58 10° SW 20:21:32 29° S 20:22:53 24° SE visible
02 Apr 1.8 20:03:58 10° SW 20:07:36 32° S 20:09:56 18° ESE visible
02 Apr 3.5 21:44:28 10° WSW 21:45:04 13° WSW 21:45:04 13° WSW visible
03 Apr 1.7 19:49:58 10° WSW 19:53:39 34° S 19:56:55 12° ESE visible
03 Apr 2.9 21:30:35 10° WSW 21:32:03 19° WSW 21:32:03 19° WSW visible
04 Apr 1.7 19:35:59 10° WSW 19:39:43 35° S 19:43:27 10° ESE visible
04 Apr 2.4 21:16:41 10° WSW 21:18:59 25° SW 21:18:59 25° SW visible
05 Apr 2.0 21:02:47 10° WSW 21:05:53 29° SSW 21:05:53 29° SSW visible
06 Apr 2.0 20:48:54 10° WSW 20:52:23 27° SSW 20:52:45 27° S visible
07 Apr 2.2 20:35:02 10° WSW 20:38:23 24° SSW 20:39:37 21° SSE visible
08 Apr 2.5 20:21:11 10° WSW 20:24:21 22° SSW 20:26:30 15° SSE visible
